When you browse on this site, cookies collect data to enhance your experience and personalize the content and advertising you see.
Visit our Privacy Policy to learn more. By continuing to use the site, you agree to this use of cookies and data.
  • In Hungary
  • List of Countries
  • For 7 days
  • Water Temperature
  • Satellite Maps
  • Weather Map
  • News
  • Weather Widgets
  • user-avatar
    Login

    Hourly Weather Rogozowa

    Today, 22 May, Wednesday

    Time Temperature Precipitation Wind Pressure Humidity
    00:00 +15°C° 1.1 mm 4 mps 745 mmHg 94%
    01:00 +15°C° 1.1 mm 4 mps 745 mmHg 96%
    02:00 +15°C° 1.2 mm 5 mps 745 mmHg 96%
    03:00 +15°C° 1.2 mm 5 mps 745 mmHg 96%
    04:00 +15°C° 1.2 mm 5 mps 745 mmHg 96%
    05:00 +15°C° 0.7 mm 5 mps 746 mmHg 96%
    06:00 +15°C° 0.7 mm 6 mps 746 mmHg 95%
    07:00 +15°C° 0.7 mm 6 mps 746 mmHg 95%
    08:00 +15°C° 0.2 mm 6 mps 747 mmHg 94%
    09:00 +15°C° 0.2 mm 6 mps 747 mmHg 93%
    10:00 +16°C° 0.2 mm 6 mps 747 mmHg 92%
    11:00 +15°C° 0.2 mm 7 mps 748 mmHg 92%
    12:00 +15°C° 0.2 mm 7 mps 748 mmHg 92%
    13:00 +15°C° 0.2 mm 7 mps 748 mmHg 93%
    14:00 +15°C° 0.2 mm 7 mps 748 mmHg 92%
    15:00 +14°C° 0.2 mm 7 mps 749 mmHg 92%
    16:00 +14°C° 0.2 mm 7 mps 749 mmHg 92%
    17:00 +12°C° 0.1 mm 7 mps 749 mmHg 92%
    18:00 +12°C° 0.1 mm 7 mps 750 mmHg 93%
    19:00 +13°C° 0.1 mm 6 mps 750 mmHg 93%
    20:00 +13°C° 0.1 mm 6 mps 750 mmHg 93%
    21:00 +13°C° 0.1 mm 6 mps 751 mmHg 94%
    22:00 +11°C° 0.1 mm 6 mps 751 mmHg 94%
    23:00 +11°C° 0.1 mm 6 mps 751 mmHg 94%

    Tomorrow, 23 May, Thursday

    Time Temperature Precipitation Wind Pressure Humidity
    00:00 +11°C° 0.1 mm 6 mps 752 mmHg 94%
    01:00 +11°C° 0.1 mm 6 mps 752 mmHg 94%
    02:00 +10°C° 0.2 mm 6 mps 752 mmHg 94%
    03:00 +10°C° 0.2 mm 6 mps 753 mmHg 94%
    04:00 +10°C° 0.2 mm 6 mps 753 mmHg 94%
    05:00 +9°C° 0.2 mm 6 mps 753 mmHg 94%
    06:00 +9°C° 0.2 mm 6 mps 754 mmHg 93%
    07:00 +9°C° 0.2 mm 6 mps 754 mmHg 93%
    08:00 +9°C° 0.1 mm 6 mps 754 mmHg 93%
    09:00 +9°C° 0.1 mm 5 mps 755 mmHg 92%
    10:00 +9°C° 0.1 mm 5 mps 755 mmHg 91%
    11:00 +11°C° 0 mm 4 mps 755 mmHg 85%
    12:00 +13°C° 0 mm 4 mps 755 mmHg 79%
    13:00 +14°C° 0 mm 3 mps 755 mmHg 74%
    14:00 +15°C° 0 mm 4 mps 755 mmHg 66%
    15:00 +18°C° 0 mm 4 mps 754 mmHg 59%
    16:00 +19°C° 0 mm 5 mps 754 mmHg 52%
    17:00 +18°C° 0 mm 4 mps 754 mmHg 58%
    18:00 +16°C° 0 mm 3 mps 754 mmHg 64%
    19:00 +15°C° 0 mm 2 mps 754 mmHg 71%
    20:00 +14°C° 0 mm 2 mps 755 mmHg 73%
    21:00 +12°C° 0 mm 2 mps 755 mmHg 75%
    22:00 +10°C° 0 mm 2 mps 755 mmHg 78%
    23:00 +9°C° 0 mm 2 mps 755 mmHg 80%

    Day after tomorrow, 24 May, Friday

    Time Temperature Precipitation Wind Pressure Humidity
    00:00 +10°C° 0 mm 1 mps 755 mmHg 82%
    01:00 +9°C° 0 mm 1 mps 755 mmHg 85%
    02:00 +9°C° 0 mm 1 mps 755 mmHg 85%
    03:00 +9°C° 0 mm 1 mps 755 mmHg 85%
    04:00 +9°C° 0 mm 1 mps 755 mmHg 86%
    05:00 +10°C° 0 mm 1 mps 755 mmHg 81%
    06:00 +12°C° 0 mm 1 mps 754 mmHg 76%
    07:00 +14°C° 0 mm 2 mps 754 mmHg 71%
    08:00 +15°C° 0 mm 2 mps 754 mmHg 67%
    09:00 +17°C° 0 mm 2 mps 754 mmHg 62%
    10:00 +19°C° 0 mm 2 mps 754 mmHg 58%
    11:00 +19°C° 0.1 mm 2 mps 754 mmHg 57%
    12:00 +20°C° 0.1 mm 2 mps 753 mmHg 55%
    13:00 +21°C° 0.1 mm 2 mps 753 mmHg 54%
    14:00 +21°C° 0 mm 2 mps 753 mmHg 55%
    15:00 +21°C° 0 mm 2 mps 752 mmHg 55%
    16:00 +21°C° 0 mm 2 mps 752 mmHg 55%
    17:00 +20°C° 0 mm 2 mps 751 mmHg 61%
    18:00 +20°C° 0 mm 1 mps 751 mmHg 66%
    19:00 +19°C° 0 mm 1 mps 751 mmHg 71%
    20:00 +18°C° 0.1 mm 1 mps 751 mmHg 73%
    21:00 +15°C° 0.1 mm 2 mps 751 mmHg 76%
    22:00 +14°C° 0.1 mm 2 mps 751 mmHg 78%
    23:00 +14°C° 0.3 mm 2 mps 751 mmHg 83%

    25 May, Saturday

    Time Temperature Precipitation Wind Pressure Humidity
    00:00 +12°C° 0.3 mm 3 mps 751 mmHg 88%
    01:00 +12°C° 0.3 mm 3 mps 751 mmHg 93%
    02:00 +11°C° 0 mm 3 mps 751 mmHg 94%
    03:00 +11°C° 0 mm 3 mps 751 mmHg 94%
    04:00 +10°C° 0 mm 3 mps 751 mmHg 95%
    05:00 +11°C° 0 mm 4 mps 751 mmHg 92%
    06:00 +12°C° 0 mm 4 mps 752 mmHg 89%
    07:00 +13°C° 0 mm 4 mps 752 mmHg 86%
    08:00 +14°C° 0 mm 5 mps 752 mmHg 78%
    09:00 +15°C° 0 mm 5 mps 752 mmHg 69%
    10:00 +16°C° 0 mm 6 mps 752 mmHg 61%
    11:00 +17°C° 0 mm 6 mps 752 mmHg 59%
    12:00 +19°C° 0 mm 6 mps 752 mmHg 57%
    13:00 +19°C° 0 mm 6 mps 752 mmHg 55%
    14:00 +19°C° 0 mm 5 mps 752 mmHg 57%
    15:00 +19°C° 0 mm 5 mps 751 mmHg 59%
    16:00 +17°C° 0 mm 5 mps 751 mmHg 60%
    17:00 +17°C° 0 mm 4 mps 751 mmHg 65%
    18:00 +16°C° 0 mm 3 mps 751 mmHg 70%
    19:00 +14°C° 0 mm 3 mps 751 mmHg 75%
    20:00 +12°C° 0 mm 3 mps 752 mmHg 79%
    21:00 +11°C° 0 mm 3 mps 752 mmHg 82%
    22:00 +10°C° 0 mm 3 mps 752 mmHg 86%
    23:00 +9°C° 0 mm 3 mps 752 mmHg 87%

    26 May, Sunday

    Time Temperature Precipitation Wind Pressure Humidity
    00:00 +9°C° 0 mm 3 mps 752 mmHg 88%
    01:00 +8°C° 0 mm 4 mps 752 mmHg 88%
    02:00 +8°C° 0 mm 4 mps 751 mmHg 90%
    03:00 +8°C° 0 mm 4 mps 751 mmHg 92%
    04:00 +7°C° 0 mm 4 mps 751 mmHg 93%
    05:00 +8°C° 0 mm 5 mps 751 mmHg 89%
    06:00 +9°C° 0 mm 5 mps 751 mmHg 85%
    07:00 +10°C° 0 mm 6 mps 751 mmHg 81%
    08:00 +10°C° 0 mm 6 mps 751 mmHg 79%
    09:00 +11°C° 0 mm 6 mps 751 mmHg 76%
    10:00 +11°C° 0 mm 6 mps 751 mmHg 74%
    11:00 +14°C° 0 mm 6 mps 751 mmHg 68%
    12:00 +16°C° 0 mm 6 mps 751 mmHg 61%
    13:00 +17°C° 0 mm 7 mps 750 mmHg 54%
    14:00 +17°C° 0 mm 6 mps 750 mmHg 58%
    15:00 +17°C° 0 mm 5 mps 750 mmHg 62%
    16:00 +17°C° 0 mm 5 mps 750 mmHg 66%
    17:00 +17°C° 0.1 mm 4 mps 750 mmHg 72%
    18:00 +14°C° 0.1 mm 4 mps 750 mmHg 78%
    19:00 +13°C° 0.1 mm 4 mps 750 mmHg 84%
    20:00 +13°C° 0 mm 4 mps 750 mmHg 87%
    21:00 +13°C° 0 mm 4 mps 750 mmHg 89%
    22:00 +13°C° 0 mm 4 mps 750 mmHg 92%
    23:00 +13°C° 0.1 mm 4 mps 750 mmHg 93%

    27 May, Monday

    Time Temperature Precipitation Wind Pressure Humidity
    00:00 +13°C° 0.1 mm 4 mps 750 mmHg 94%
    01:00 +13°C° 0.1 mm 4 mps 750 mmHg 95%
    02:00 +13°C° 0.1 mm 4 mps 750 mmHg 95%
    03:00 +13°C° 0.1 mm 4 mps 749 mmHg 95%
    04:00 +13°C° 0.1 mm 4 mps 749 mmHg 95%
    05:00 +13°C° 0.1 mm 5 mps 749 mmHg 93%
    06:00 +14°C° 0.1 mm 5 mps 749 mmHg 92%
    07:00 +14°C° 0.1 mm 5 mps 749 mmHg 90%
    08:00 +15°C° 0.5 mm 5 mps 749 mmHg 90%
    09:00 +15°C° 0.5 mm 5 mps 749 mmHg 90%
    10:00 +15°C° 0.5 mm 6 mps 749 mmHg 89%
    11:00 +16°C° 0.5 mm 6 mps 749 mmHg 85%
    12:00 +17°C° 0.5 mm 6 mps 749 mmHg 81%
    13:00 +19°C° 0.5 mm 6 mps 749 mmHg 77%
    14:00 +20°C° 0.3 mm 6 mps 749 mmHg 74%
    15:00 +20°C° 0.3 mm 6 mps 749 mmHg 70%
    16:00 +21°C° 0.3 mm 6 mps 749 mmHg 67%
    17:00 +20°C° 0 mm 5 mps 749 mmHg 69%
    18:00 +19°C° 0 mm 4 mps 750 mmHg 71%
    19:00 +18°C° 0 mm 3 mps 750 mmHg 73%
    20:00 +16°C° 0 mm 2 mps 751 mmHg 77%
    21:00 +14°C° 0 mm 2 mps 751 mmHg 81%
    22:00 +13°C° 0 mm 1 mps 752 mmHg 86%
    23:00 +12°C° 0 mm 1 mps 752 mmHg 88%
    Show more